This is the latest recevied weather packets stored in our database for station/object KC4JIR. If no packets are shown the sender has not sent any weather packets the latest 10 day(s).
| Time | Temp. | Humidity | Pressure | Rain* | Wind** | Luminosity | Snow |
|---|---|---|---|---|---|---|---|
| 1788308749 | 28.33° C | 78% | 1014.2 hPa | 0 mm | - | 0 W/m² | - |
| 1788308444 | 28.33° C | 75% | 1014.1 hPa | 0 mm | - | 0 W/m² | - |
| 1788308138 | 28.33° C | 76% | 1014.5 hPa | 0 mm | - | 0 W/m² | - |
| 1788307834 | 28.33° C | 81% | 1014.2 hPa | 0 mm | - | 0 W/m² | - |
| 1788307528 | 28.89° C | 80% | 1014.2 hPa | 0 mm | - | 0 W/m² | - |
| 1788307224 | 28.89° C | 78% | 1014.3 hPa | 0 mm | - | 1 W/m² | - |
| 1788306918 | 28.89° C | 78% | 1014.3 hPa | 0 mm | - | 1 W/m² | - |
| 1788306614 | 29.44° C | 79% | 1014.2 hPa | 0 mm | - | 4 W/m² | - |
| 1788306312 | 29.44° C | 77% | 1014.2 hPa | 0 mm | - | 6 W/m² | - |
| 1788306008 | 30° C | 75% | 1014.3 hPa | 0 mm | - | 13 W/m² | - |
| 1788305703 | 30° C | 75% | 1014.5 hPa | 0 mm | - | 13 W/m² | - |
| 1788305399 | 30° C | 72% | 1014.5 hPa | 0 mm | - | 15 W/m² | - |
| 1788305094 | 30.56° C | 75% | 1014.3 hPa | 0 mm | - | 17 W/m² | - |
| 1788304789 | 30.56° C | 72% | 1014.5 hPa | 0 mm | - | 19 W/m² | - |
| 1788304485 | 30.56° C | 73% | 1014.7 hPa | 0 mm | - | 23 W/m² | - |
| 1788301450 | 34.44° C | 61% | 1014.5 hPa | 0 mm | - | 46 W/m² | - |
| 1788301146 | 34.44° C | 61% | 1014.5 hPa | 0 mm | - | 46 W/m² | - |
| 1788300841 | 34.44° C | 58% | 1014.3 hPa | 0 mm | - | 49 W/m² | - |
| 1788300536 | 34.44° C | 58% | 1014.4 hPa | 0 mm | - | 49 W/m² | - |
| 1788300234 | 34.44° C | 58% | 1014.2 hPa | 0 mm | - | 49 W/m² | - |
| 1788299955 | 35° C | 57% | 1014.4 hPa | 0 mm | - | 50 W/m² | - |
| 1788299633 | 34.44° C | 55% | 1014.3 hPa | 0 mm | - | 231 W/m² | - |
| 1788299332 | 35° C | 54% | 1014.4 hPa | 0 mm | - | 281 W/m² | - |
| 1788299031 | 35° C | 54% | 1014.5 hPa | 0 mm | - | 281 W/m² | - |
| 1788298731 | 35° C | 54% | 1014.5 hPa | 0 mm | - | 281 W/m² | - |
* Rain latest hour (hover to see other rain measurements)
** Current wind speed in m/s (hover to see current wind gust speed)